TimeCST,TemperatureF,Dew PointF,Humidity,Sea Level PressureIn,VisibilityMPH,Wind Direction,Wind SpeedMPH,Gust SpeedMPH,PrecipitationIn,Events,Conditions,WindDirDegrees,DateUTC
12:15 AM,32.0,28.4,87,30.02,9.0,Calm,Calm,-,N/A,,Clear,0,2013-02-24 06:15:00
12:35 AM,32.0,28.4,87,30.02,10.0,Calm,Calm,-,N/A,,Clear,0,2013-02-24 06:35:00
12:55 AM,32.0,28.4,87,30.03,9.0,NE,3.5,-,N/A,,Clear,40,2013-02-24 06:55:00
1:15 AM,32.0,28.4,87,30.03,9.0,Calm,Calm,-,N/A,,Clear,0,2013-02-24 07:15:00
1:35 AM,32.0,28.4,87,30.03,9.0,NNE,3.5,-,N/A,,Clear,30,2013-02-24 07:35:00
1:55 AM,32.0,28.4,87,30.04,9.0,Calm,Calm,-,N/A,,Clear,0,2013-02-24 07:55:00
2:15 AM,32.0,28.4,87,30.04,8.0,Calm,Calm,-,N/A,,Clear,0,2013-02-24 08:15:00
2:35 AM,30.2,28.4,93,30.04,8.0,Calm,Calm,-,N/A,,Clear,0,2013-02-24 08:35:00
2:55 AM,28.4,26.6,93,30.03,8.0,Calm,Calm,-,N/A,,Clear,0,2013-02-24 08:55:00
3:15 AM,28.4,26.6,93,30.03,8.0,Calm,Calm,-,N/A,,Clear,0,2013-02-24 09:15:00
3:35 AM,28.4,26.6,93,30.03,8.0,Calm,Calm,-,N/A,,Clear,0,2013-02-24 09:35:00
3:55 AM,28.4,26.6,93,30.03,8.0,Calm,Calm,-,N/A,,Clear,0,2013-02-24 09:55:00
4:15 AM,28.4,26.6,93,30.04,7.0,Calm,Calm,-,N/A,,Clear,0,2013-02-24 10:15:00
4:35 AM,28.4,26.6,93,30.04,7.0,Calm,Calm,-,N/A,,Clear,0,2013-02-24 10:35:00
4:55 AM,26.6,26.6,100,30.04,7.0,Calm,Calm,-,N/A,,Clear,0,2013-02-24 10:55:00
5:15 AM,26.6,26.6,100,30.05,5.0,Calm,Calm,-,N/A,,Clear,0,2013-02-24 11:15:00
5:35 AM,26.6,24.8,93,30.06,7.0,Calm,Calm,-,N/A,,Clear,0,2013-02-24 11:35:00
5:55 AM,26.6,24.8,93,30.07,8.0,Calm,Calm,-,N/A,,Clear,0,2013-02-24 11:55:00
6:15 AM,26.6,24.8,93,30.07,7.0,Calm,Calm,-,N/A,,Clear,0,2013-02-24 12:15:00
6:55 AM,26.6,24.8,93,30.09,5.0,Calm,Calm,-,N/A,,Clear,0,2013-02-24 12:55:00
7:15 AM,26.6,26.6,100,30.09,6.0,Calm,Calm,-,N/A,,Clear,0,2013-02-24 13:15:00
7:35 AM,30.2,28.4,93,30.09,7.0,Calm,Calm,-,N/A,,Clear,0,2013-02-24 13:35:00
7:55 AM,32.0,28.4,87,30.10,7.0,ENE,4.6,-,N/A,,Clear,60,2013-02-24 13:55:00
8:15 AM,35.6,28.4,75,30.11,8.0,ENE,6.9,-,N/A,,Clear,70,2013-02-24 14:15:00
8:55 AM,39.2,28.4,65,30.11,7.0,ENE,5.8,-,N/A,,Clear,70,2013-02-24 14:55:00
9:15 AM,42.8,28.4,57,30.11,8.0,East,8.1,-,N/A,,Clear,80,2013-02-24 15:15:00
9:35 AM,44.6,28.4,53,30.11,8.0,ENE,9.2,-,N/A,,Clear,60,2013-02-24 15:35:00
9:55 AM,46.4,28.4,50,30.11,10.0,East,6.9,-,N/A,,Clear,90,2013-02-24 15:55:00
10:15 AM,48.2,28.4,46,30.10,9.0,ESE,5.8,-,N/A,,Clear,110,2013-02-24 16:15:00
10:35 AM,48.2,26.6,43,30.09,8.0,ESE,5.8,-,N/A,,Clear,120,2013-02-24 16:35:00
10:55 AM,50.0,28.4,43,30.09,8.0,East,4.6,-,N/A,,Clear,100,2013-02-24 16:55:00
11:15 AM,50.0,26.6,40,30.09,9.0,Calm,Calm,-,N/A,,Clear,0,2013-02-24 17:15:00
11:35 AM,51.8,26.6,38,30.08,9.0,ENE,4.6,-,N/A,,Clear,70,2013-02-24 17:35:00
11:55 AM,53.6,26.6,35,30.08,10.0,SE,3.5,-,N/A,,Clear,140,2013-02-24 17:55:00
12:15 PM,55.4,28.4,36,30.07,9.0,ENE,8.1,-,N/A,,Clear,70,2013-02-24 18:15:00
12:35 PM,55.4,28.4,36,30.06,9.0,East,4.6,-,N/A,,Clear,80,2013-02-24 18:35:00
12:55 PM,55.4,28.4,36,30.04,9.0,Calm,Calm,-,N/A,,Clear,0,2013-02-24 18:55:00
1:15 PM,57.2,28.4,33,30.02,7.0,East,6.9,-,N/A,,Clear,80,2013-02-24 19:15:00
1:35 PM,59.0,30.2,34,30.01,9.0,ESE,3.5,-,N/A,,Clear,120,2013-02-24 19:35:00
1:55 PM,59.0,32.0,36,30.01,9.0,NE,8.1,-,N/A,,Clear,50,2013-02-24 19:55:00
2:15 PM,59.0,32.0,36,30.01,8.0,NE,6.9,-,N/A,,Clear,50,2013-02-24 20:15:00
2:35 PM,59.0,32.0,36,30.00,9.0,NE,6.9,-,N/A,,Clear,50,2013-02-24 20:35:00
2:55 PM,59.0,32.0,36,30.00,9.0,East,6.9,-,N/A,,Clear,80,2013-02-24 20:55:00
3:15 PM,59.0,32.0,36,29.99,9.0,NE,6.9,-,N/A,,Clear,40,2013-02-24 21:15:00
3:35 PM,59.0,32.0,36,30.00,10.0,ENE,8.1,-,N/A,,Clear,70,2013-02-24 21:35:00
3:55 PM,59.0,30.2,34,29.99,10.0,ENE,9.2,-,N/A,,Clear,60,2013-02-24 21:55:00
4:15 PM,59.0,32.0,36,29.98,9.0,ENE,9.2,-,N/A,,Clear,70,2013-02-24 22:15:00
4:35 PM,59.0,32.0,36,29.97,9.0,East,6.9,-,N/A,,Clear,100,2013-02-24 22:35:00
4:55 PM,57.2,32.0,38,29.97,9.0,East,9.2,-,N/A,,Clear,80,2013-02-24 22:55:00
5:15 PM,57.2,32.0,38,29.97,10.0,East,5.8,-,N/A,,Clear,90,2013-02-24 23:15:00
5:35 PM,53.6,32.0,44,29.97,9.0,East,4.6,-,N/A,,Clear,90,2013-02-24 23:35:00
5:55 PM,50.0,32.0,50,29.97,9.0,East,4.6,-,N/A,,Clear,90,2013-02-24 23:55:00
6:15 PM,48.2,32.0,54,29.98,10.0,ENE,3.5,-,N/A,,Clear,70,2013-02-25 00:15:00
6:35 PM,46.4,33.8,62,29.98,10.0,East,4.6,-,N/A,,Clear,80,2013-02-25 00:35:00
6:55 PM,44.6,32.0,61,29.97,10.0,East,3.5,-,N/A,,Clear,90,2013-02-25 00:55:00
7:15 PM,44.6,33.8,66,29.98,10.0,East,3.5,-,N/A,,Clear,90,2013-02-25 01:15:00
7:35 PM,42.8,32.0,66,29.97,10.0,East,3.5,-,N/A,,Clear,100,2013-02-25 01:35:00
7:55 PM,42.8,32.0,66,29.97,10.0,East,3.5,-,N/A,,Clear,100,2013-02-25 01:55:00
8:15 PM,41.0,32.0,70,29.95,10.0,East,6.9,-,N/A,,Clear,90,2013-02-25 02:15:00
8:35 PM,46.4,32.0,57,29.95,10.0,East,10.4,-,N/A,,Clear,80,2013-02-25 02:35:00
8:55 PM,48.2,32.0,54,29.95,10.0,East,9.2,-,N/A,,Clear,90,2013-02-25 02:55:00
9:15 PM,48.2,30.2,50,29.95,10.0,East,6.9,-,N/A,,Clear,100,2013-02-25 03:15:00
9:35 PM,48.2,30.2,50,29.95,10.0,ESE,8.1,-,N/A,,Clear,110,2013-02-25 03:35:00
9:55 PM,48.2,28.4,46,29.93,10.0,East,8.1,-,N/A,,Clear,100,2013-02-25 03:55:00
10:15 PM,48.2,28.4,46,29.93,10.0,ESE,6.9,-,N/A,,Clear,110,2013-02-25 04:15:00
10:35 PM,48.2,30.2,50,29.92,10.0,ESE,5.8,-,N/A,,Clear,110,2013-02-25 04:35:00
10:55 PM,48.2,30.2,50,29.92,10.0,ESE,5.8,-,N/A,,Clear,110,2013-02-25 04:55:00
11:15 PM,46.4,30.2,53,29.91,10.0,ESE,4.6,-,N/A,,Clear,110,2013-02-25 05:15:00
11:35 PM,46.4,30.2,53,29.91,10.0,East,8.1,-,N/A,,Clear,100,2013-02-25 05:35:00
11:55 PM,46.4,30.2,53,29.91,10.0,East,9.2,-,N/A,,Clear,80,2013-02-25 05:55:00